Location: *
(46.3500°N, 10.9000°E)
Time: 09:39:26
(UTC+00:00)

Vanguard 3 - All Passes

Search period start: 19 April 2021 00:00
Search period end: 29 April 2021 00:00
Orbit: 508 x 3262 km, 33.3° (Epoch: 18 April)

Date Brightness Start Highest point End Pass type
(mag) Time Alt. Az. Time Alt. Az. Time Alt. Az.
19 Apr - 02:59:58 10° SSW 03:01:35 12° S 03:03:14 10° SSE visible
20 Apr - 01:46:29 10° SSW 01:48:08 12° S 01:49:42 10° SSE visible
20 Apr - 03:57:54 10° SSW 03:58:44 11° S 03:59:34 10° S daylight
21 Apr - 00:32:57 10° SSW 00:34:37 12° S 00:36:07 10° SSE night (unlit)
21 Apr - 02:43:39 10° SSW 02:45:17 12° S 02:46:52 10° SSE visible
21 Apr - 23:19:46 10° S 23:20:56 11° SSE 23:22:01 10° SSE night (unlit)
22 Apr - 01:29:29 10° SSW 01:31:49 14° S 01:33:55 10° SSE visible
23 Apr - 00:15:13 10° SSW 00:18:18 15° S 00:20:50 10° SE night (unlit)
23 Apr - 02:27:13 10° SW 02:28:57 12° S 02:30:35 10° SSE visible
23 Apr - 23:00:55 10° SSW 23:04:35 15° S 23:07:31 10° SE night (unlit)
24 Apr - 01:12:29 10° SW 01:15:31 16° S 01:18:03 10° SE visible
24 Apr - 21:46:56 10° S 21:50:36 13° SSE 21:53:37 10° SE night (unlit)
24 Apr - 23:57:42 10° SW 00:01:58 18° S 00:05:13 10° SE night (unlit)
25 Apr - 02:10:39 10° SW 02:12:36 13° SSW 02:14:22 10° SSE visible
25 Apr - 20:34:26 10° S 20:36:22 11° SSE 20:38:07 10° SSE visible
25 Apr - 22:42:47 10° SW 22:48:12 19° S 22:52:08 10° SE night (unlit)
26 Apr - 00:55:26 10° SW 00:59:11 18° S 01:02:09 10° SE night (unlit)
26 Apr - 21:28:00 10° SSW 21:34:08 18° SSE 21:38:38 10° SE visible
26 Apr - 23:40:12 10° SW 23:45:37 22° S 23:49:29 10° SE night (unlit)
27 Apr - 01:53:58 10° SW 01:56:13 13° SSW 01:58:11 10° S visible
27 Apr - 20:13:48 10° S 20:19:45 15° SSE 20:24:23 10° SE visible
27 Apr - 22:24:48 10° SW 22:31:46 24° S 22:36:31 10° ESE visible
28 Apr - 00:38:18 10° WSW 00:42:50 20° SSW 00:46:13 10° SE night (unlit)
28 Apr - 19:01:31 10° SSE 19:05:05 11° SSE 19:08:13 10° SE visible
28 Apr - 21:09:25 10° SSW 21:17:35 23° SSE 21:23:09 10° ESE visible
28 Apr - 23:22:39 10° WSW 23:29:13 26° S 23:33:38 10° SE visible
